Weather History for Texarkana, AR

Change the Weather History Date:

Saturday, April 6, 2013

  Actual Average Record
Temperature  
Mean Temperature 64 °F 61 °F  
Max Temperature 77 °F 73 °F 89 °F (1960)
Min Temperature 51 °F 50 °F 33 °F (1931)
Degree Days  
Heating Degree Days 1 5  
Month to date heating degree days 64 34  
Since 1 July heating degree days 2400 2528  
Cooling Degree Days 0 2  
Month to date cooling degree days 0 9  
Year to date cooling degree days 15 32  
Growing Degree Days 14 (Base 50)    
Moisture  
Dew Point 48 °F    
Average Humidity 60    
Maximum Humidity 83    
Minimum Humidity 36    
Precipitation  
Precipitation 0.00 in 0.13 in 2.83 in (1940)
Month to date precipitation 0.58 0.73  
Year to date precipitation 8.63 12.32  
Snow  
Snow 0.00 in - - ()
Month to date snowfall 0.0  
Since 1 July snowfall 2.1  
Snow Depth 0.00 in    
Sea Level Pressure  
Sea Level Pressure 29.98 in    
Wind  
Wind Speed 10 mph (South)    
Max Wind Speed 20 mph    
Max Gust Speed 29 mph    
Visibility 10 miles    
Events      
T = Trace of Precipitation, MM = Missing Value Source: NWS Daily Summary

Daily Weather History Graph

Daily Weather History Graph

Search for Another Location

Airport:

Trip Planner

Search our weather history database for the weather conditions in past years. The results will help you decide how hot, cold, wet, or windy it might be!

Date:

Astronomy

Apr. 06, 2013 Rise Set
Actual Time 6:56 AM CDT 7:40 PM CDT
Civil Twilight 6:31 AM CDT 8:05 PM CDT
Nautical Twilight 6:01 AM CDT 8:35 PM CDT
Astronomical Twilight 5:31 AM CDT 9:05 PM CDT
Moon 4:30 AM CDT (4/6) 4:19 PM CDT (4/6)
Length of Visible Light 13h 34m
Length of Day
12h 43m
Waning Crescent, 15% of the Moon is Illuminated
Apr 6
Waning Crescent
Apr 10
New
Apr 18
First Quarter
Apr 25
Full
May 2
Last Quarter

Hourly Weather History & Observations

Time (CDT) Temp. Dew Point Humidity Pressure Visibility Wind Dir Wind Speed Gust Speed Precip Events Conditions
12:53 AM 57.9 °F 43.0 °F 58% 30.07 in 10.0 mi SSE 6.9 mph - N/A   Clear
1:53 AM 57.9 °F 45.0 °F 62% 30.05 in 10.0 mi SSE 8.1 mph - N/A   Clear
2:53 AM 55.9 °F 44.1 °F 64% 30.03 in 10.0 mi South 9.2 mph - N/A   Clear
3:53 AM 54.0 °F 45.0 °F 72% 30.02 in 10.0 mi South 6.9 mph - N/A   Clear
4:53 AM 54.0 °F 45.0 °F 72% 30.01 in 10.0 mi South 6.9 mph - N/A   Clear
5:53 AM 52.0 °F 46.0 °F 80% 30.02 in 10.0 mi South 8.1 mph - N/A   Clear
6:53 AM 52.0 °F 46.0 °F 80% 30.04 in 10.0 mi South 4.6 mph - N/A   Clear
7:53 AM 54.0 °F 46.9 °F 77% 30.06 in 10.0 mi South 8.1 mph - N/A   Clear
8:53 AM 55.9 °F 48.0 °F 75% 30.06 in 10.0 mi SSW 11.5 mph - N/A   Clear
9:53 AM 61.0 °F 50.0 °F 67% 30.05 in 10.0 mi South 13.8 mph - N/A   Clear
10:53 AM 64.9 °F 48.9 °F 56% 30.03 in 10.0 mi South 12.7 mph 20.7 mph N/A   Clear
11:53 AM 69.1 °F 50.0 °F 51% 30.02 in 10.0 mi South 16.1 mph 21.9 mph N/A   Partly Cloudy
12:53 PM 72.0 °F 50.0 °F 46% 30.01 in 10.0 mi South 11.5 mph 18.4 mph N/A   Clear
1:53 PM 73.0 °F 48.0 °F 41% 29.97 in 10.0 mi South 15.0 mph 20.7 mph N/A   Clear
2:53 PM 73.9 °F 48.0 °F 40% 29.94 in 10.0 mi SW 16.1 mph 21.9 mph N/A   Clear
3:53 PM 75.9 °F 48.9 °F 38% 29.90 in 10.0 mi South 13.8 mph 25.3 mph N/A   Clear
4:53 PM 75.9 °F 46.0 °F 35% 29.88 in 10.0 mi SSW 12.7 mph 24.2 mph N/A   Clear
5:53 PM 75.9 °F 48.0 °F 37% 29.88 in 10.0 mi South 10.4 mph - N/A   Clear
6:53 PM 73.9 °F 48.9 °F 41% 29.88 in 10.0 mi South 5.8 mph - N/A   Clear
7:53 PM 68.0 °F 50.0 °F 52% 29.88 in 10.0 mi South 4.6 mph - N/A   Clear
8:53 PM 64.9 °F 50.0 °F 58% 29.91 in 10.0 mi SSE 4.6 mph - N/A   Clear
9:53 PM 68.0 °F 51.1 °F 55% 29.93 in 10.0 mi South 6.9 mph - N/A   Overcast
10:53 PM 68.0 °F 53.1 °F 59% 29.93 in 10.0 mi South 10.4 mph - N/A   Overcast
11:53 PM 66.9 °F 54.0 °F 63% 29.94 in 10.0 mi South 10.4 mph 19.6 mph N/A   Overcast